Location: Catacaguana
(10.4120°N, 66.7591°W)
Time: 07:44:25
(UTC+00:00)

CZ-4B R/B - Pass Details

Date: 27 May 2022
Orbit: 495 x 639 km, 97.8° (Epoch: 28 June)

Event Time Altitude Azimuth Distance (km) Brightness Sun altitude
Rises 09:33:08 0° 10° (N) 2,625 7.8 -7.9°
Reaches altitude 10° 09:35:11 10° 10° (N) 1,757 6.9 -7.4°
Maximum altitude 09:38:58 86° 283° (WNW) 544 3.8 -6.5°
Drops below altitude 10° 09:42:56 10° 193° (SSW) 1,839 6.2 -5.6°
Sets 09:45:07 0° 193° (SSW) 2,760 7.0 -5.2°
